EW0608 Weather Reports


Display with metric or nautical units.
time (UTC)temp
F
wind
direction
speed
MPH
gust
MPH
rain 1hr
in
rain 24hr
in
rain mn
in
humidity
%
barometer
mb
20260902204554 82 40 1.0 3.0 0.00 0.00 0.00 79 1015.6
20260902204352 82 53 1.0 3.0 0.00 0.00 0.00 80 1017.0
20260902203842 83 22 1.0 4.0 0.00 0.00 0.00 81 1016.9
20260902203355 82 288 2.0 4.0 0.00 0.00 0.00 79 1016.8
20260902203050 82 231 0.0 4.0 0.00 0.00 0.00 78 1015.4
20260902202848 82 94 1.0 4.0 0.00 0.00 0.00 78 1016.9
20260902202343 83 291 2.0 4.0 0.00 0.00 0.00 80 1017.0
20260902201835 82 5 1.0 3.0 0.00 0.00 0.00 80 1016.9
20260902201509 82 271 0.0 3.0 0.00 0.00 0.00 79 1015.4
20260902201410 83 311 1.0 3.0 0.00 0.00 0.00 79 1016.8
20260902200841 83 347 1.0 6.0 0.00 0.00 0.00 80 1017.0
20260902200339 83 252 2.0 6.0 0.00 0.00 0.00 78 1017.2
20260902200051 82 221 1.0 4.0 0.00 0.00 0.00 79 1015.7
20260902195848 83 288 1.0 4.0 0.00 0.00 0.00 79 1017.2
20260902195341 83 23 2.0 4.0 0.00 0.00 0.00 77 1017.2
20260902194853 84 136 1.0 4.0 0.00 0.00 0.00 76 1017.0
20260902194547 83 9 0.0 3.0 0.00 0.00 0.00 75 1015.5
20260902194346 83 79 1.0 3.0 0.00 0.00 0.00 78 1016.9
20260902193836 83 225 327.0 327.0 0.00 0.00 0.00 78 1016.5
20260902193350 82 304 1.0 2.0 0.00 0.00 0.00 80 1016.9
20260902193044 81 59 0.0 2.0 0.00 0.00 0.00 81 1015.5
20260902192843 82 59 0.0 2.0 0.00 0.00 0.00 82 1016.9
20260902192356 82 59 1.0 3.0 0.00 0.00 0.00 80 1016.8
20260902191848 82 59 0.0 3.0 0.00 0.00 0.00 83 1016.9
20260902191542 81 59 0.0 4.0 0.00 0.00 0.00 81 1015.4
20260902191342 82 59 0.0 4.0 0.00 0.00 0.00 80 1016.9
20260902190914 82 350 1.0 4.0 0.00 0.00 0.00 82 1017.1
20260902190348 81 355 0.0 2.0 0.00 0.00 0.00 86 1017.3
20260902190023 79 355 0.0 2.0 0.00 0.00 0.00 87 1015.9
20260902185917 79 355 0.0 2.0 0.00 0.00 0.00 87 1017.4
20260902185349 79 320 0.0 5.0 0.00 0.00 0.00 88 1017.5
20260902184900 79 80 1.0 5.0 0.00 0.00 0.00 88 1017.6
20260902184613 78 13 1.0 5.0 0.00 0.00 0.00 88 1016.3
20260902184351 79 74 1.0 3.0 0.00 0.00 0.00 89 1017.9
20260902183845 78 314 0.0 3.0 0.00 0.00 0.00 89 1017.7
20260902183337 78 360 0.0 2.0 0.00 0.00 0.00 92 1017.6
20260902183102 77 360 0.0 2.0 0.00 0.00 0.00 91 1016.2
20260902182850 78 360 1.0 2.0 0.00 0.00 0.00 92 1017.6
20260902182341 77 360 0.0 1.0 0.00 0.00 0.00 92 1017.5
20260902181914 77 360 0.0 3.0 0.00 0.00 0.00 91 1017.6
20260902181546 77 360 0.0 3.0 0.00 0.00 0.00 92 1016.0
20260902181345 77 360 1.0 3.0 0.00 0.00 0.00 91 1017.5
20260902180838 78 46 2.0 3.0 0.00 0.00 0.00 91 1017.7
20260902180349 78 215 2.0 3.0 0.00 0.00 0.00 89 1018.0
20260902180043 78 338 1.0 6.0 0.00 0.00 0.00 87 1016.7
20260902175839 79 338 2.0 7.0 0.00 0.00 0.00 87 1018.1
20260902175411 82 339 3.0 7.0 0.00 0.00 0.00 81 1017.5
20260902174843 87 236 1.0 5.0 0.00 0.00 0.00 73 1017.3
20260902174515 89 15 1.0 5.0 0.00 0.00 0.00 72 1015.5
20260902174414 90 85 3.0 5.0 0.00 0.00 0.00 72 1017.0
20260902173846 90 129 1.0 4.0 0.00 0.00 0.00 66 1016.9
20260902173400 90 236 1.0 4.0 0.00 0.00 0.00 64 1016.9
20260902173051 89 225 2.0 4.0 0.00 0.00 0.00 65 1015.4
20260902172851 89 208 1.0 2.0 0.00 0.00 0.00 69 1017.0
20260902172405 89 208 0.0 2.0 0.00 0.00 0.00 67 1017.2
20260902171855 89 208 0.0 2.0 0.00 0.00 0.00 72 1017.3
20260902171549 89 208 0.0 1.0 0.00 0.00 0.00 69 1016.0
20260902171349 89 208 0.0 2.0 0.00 0.00 0.00 71 1017.4
20260902170840 89 208 0.0 4.0 0.00 0.00 0.00 66 1017.5
20260902170340 89 215 1.0 4.0 0.00 0.00 0.00 62 1017.6
20260902170052 89 223 0.0 3.0 0.00 0.00 0.00 64 1016.1
20260902165848 89 161 1.0 3.0 0.00 0.00 0.00 63 1017.6
20260902165341 90 111 1.0 3.0 0.00 0.00 0.00 64 1017.6
20260902164914 90 84 1.0 5.0 0.00 0.00 0.00 62 1017.7
20260902164509 90 232 1.0 5.0 0.00 0.00 0.00 59 1016.4
20260902164406 91 210 2.0 5.0 0.00 0.00 0.00 61 1017.9
20260902163837 91 237 1.0 4.0 0.00 0.00 0.00 62 1017.7
20260902163410 91 78 2.0 3.0 0.00 0.00 0.00 64 1017.8
20260902163001 90 202 1.0 4.0 0.00 0.00 0.00 63 1016.4
20260902162900 90 206 2.0 4.0 0.00 0.00 0.00 62 1018.0
20260902162352 90 194 1.0 3.0 0.00 0.00 0.00 62 1018.0
20260902161845 90 194 1.0 3.0 0.00 0.00 0.00 63 1018.0
20260902161538 89 185 1.0 3.0 0.00 0.00 0.00 63 1016.6
20260902161337 90 240 1.0 3.0 0.00 0.00 0.00 65 1018.1
20260902160850 89 118 1.0 3.0 0.00 0.00 0.00 67 1018.1
20260902160343 89 49 2.0 5.0 0.00 0.00 0.00 67 1018.2
20260902160054 88 46 1.0 5.0 0.00 0.00 0.00 66 1016.7
20260902155853 88 214 1.0 5.0 0.00 0.00 0.00 66 1018.2
20260902155347 88 44 2.0 4.0 0.00 0.00 0.00 69 1018.0
20260902154838 87 355 2.0 5.0 0.00 0.00 0.00 73 1018.0
20260902154551 87 101 2.0 5.0 0.00 0.00 0.00 72 1016.5
20260902154350 86 214 1.0 0.0 0.00 0.00 0.00 74 1017.6
20260902153842 86 177 0.0 2.0 0.00 0.00 0.00 75 1018.0
20260902153354 85 175 0.0 0.0 0.00 0.00 0.00 82 1017.9
20260902153007 84 175 0.0 0.0 0.00 0.00 0.00 83 1016.5
20260902152907 85 175 0.0 0.0 0.00 0.00 0.00 82 1018.0
20260902152339 83 175 0.0 0.0 0.00 0.00 0.00 88 1018.0
20260902151851 82 175 0.0 0.0 0.00 0.00 0.00 89 1018.1
20260902151551 81 175 0.0 0.0 0.00 0.00 0.00 89 1016.7
20260902151344 81 175 0.0 0.0 0.00 0.00 0.00 89 1018.2
20260902150837 81 175 0.0 0.0 0.00 0.00 0.00 88 1018.1
20260902150430 81 175 0.0 0.0 0.00 0.00 0.00 87 1018.1
20260902150057 81 175 0.0 0.0 0.00 0.00 0.00 87 1016.7
20260902145855 81 175 0.0 0.0 0.00 0.00 0.00 88 1018.1
20260902145347 81 175 0.0 0.0 0.00 0.00 0.00 87 1018.0
20260902144840 81 175 0.0 0.0 0.00 0.00 0.00 87 1018.0
20260902144553 80 175 0.0 0.0 0.00 0.00 0.00 88 1016.6
20260902144353 80 175 0.0 0.0 0.00 0.00 0.00 88 1018.0
20260902143846 80 175 0.0 0.0 0.00 0.00 0.00 88 1018.0
20260902143338 79 175 0.0 0.0 0.00 0.00 0.00 88 1018.0
20260902143056 79 175 0.0 0.0 0.00 0.00 0.00 87 1016.5
20260902142851 79 175 0.0 0.0 0.00 0.00 0.00 88 1018.0
20260902142343 78 175 0.0 0.0 0.00 0.00 0.00 90 1018.0
20260902141842 77 175 0.0 0.0 0.00 0.00 0.00 91 1018.0
20260902141539 76 175 0.0 0.0 0.00 0.00 0.00 91 1016.7
20260902141336 77 175 0.0 0.0 0.00 0.00 0.00 92 1018.1
20260902140848 76 175 0.0 0.0 0.00 0.00 0.00 93 1018.2
20260902140342 75 175 0.0 0.0 0.00 0.00 0.00 94 1018.2
20260902140051 74 175 0.0 0.0 0.00 0.00 0.00 94 1016.7
20260902135850 75 175 0.0 0.0 0.00 0.00 0.00 94 1018.1
20260902135343 74 175 0.0 0.0 0.00 0.00 0.00 94 1018.2
20260902134836 74 175 0.0 0.0 0.00 0.00 0.00 94 1018.1
20260902134602 73 175 0.0 0.0 0.00 0.00 0.00 94 1016.7
20260902134348 74 175 0.0 0.0 0.00 0.00 0.00 94 1018.2
20260902133840 74 175 0.0 0.0 0.00 0.00 0.00 95 1018.3
20260902133352 74 175 0.0 0.0 0.00 0.00 0.00 95 1018.3
20260902133049 73 175 0.0 0.0 0.00 0.00 0.00 95 1016.9
20260902132846 73 175 0.0 0.0 0.00 0.00 0.00 95 1018.4
20260902132339 72 175 0.0 0.0 0.00 0.00 0.00 95 1018.4
20260902131851 71 175 0.0 0.0 0.00 0.00 0.00 95 1018.3
20260902131549 71 175 0.0 0.0 0.00 0.00 0.00 95 1016.9
20260902131344 71 175 0.0 0.0 0.00 0.00 0.00 95 1018.3
20260902130837 71 175 0.0 0.0 0.00 0.00 0.00 95 1018.3
20260902130410 71 175 0.0 0.0 0.00 0.00 0.00 95 1018.3
20260902130040 70 175 0.0 0.0 0.00 0.00 0.00 95 1016.9
20260902125840 71 175 0.0 0.0 0.00 0.00 0.00 95 1018.4
20260902125352 70 175 0.0 0.0 0.00 0.00 0.00 95 1018.4
20260902124846 70 175 0.0 0.0 0.00 0.00 0.00 95 1018.5
20260902124538 70 175 0.0 0.0 0.00 0.00 0.00 95 1017.1
20260902124338 70 175 0.0 0.0 0.00 0.00 0.00 95 1018.5
20260902123910 70 175 0.0 0.0 0.00 0.00 0.00 95 1018.3
20260902123340 70 175 0.0 0.0 0.00 0.00 0.00 95 1018.2
20260902123054 69 175 0.0 0.0 0.00 0.00 0.00 95 1016.8
20260902122854 70 175 0.0 0.0 0.00 0.00 0.00 95 1018.2
20260902122345 70 175 0.0 0.0 0.00 0.00 0.00 95 1018.1
20260902121842 70 175 0.0 0.0 0.00 0.00 0.00 95 1018.1
20260902121602 69 175 0.0 0.0 0.00 0.00 0.00 95 1016.7
20260902121354 70 175 0.0 0.0 0.00 0.00 0.00 95 1018.1
20260902120847 70 175 0.0 0.0 0.00 0.00 0.00 95 1018.1
20260902120341 70 175 0.0 0.0 0.00 0.00 0.00 95 1018.1
20260902120011 69 175 0.0 0.0 0.00 0.00 0.00 95 1016.8
20260902115910 70 175 0.0 0.0 0.00 0.00 0.00 95 1018.2
20260902115341 69 175 0.0 0.0 0.00 0.00 0.00 94 1018.2
20260902114854 69 175 0.0 0.0 0.00 0.00 0.00 94 1018.2
20260902114556 69 175 0.0 0.0 0.00 0.00 0.00 95 1016.8
20260902114348 69 175 0.0 0.0 0.00 0.00 0.00 95 1018.1
20260902113017 69 175 0.0 0.0 0.00 0.00 0.00 94 1016.7
20260902111516 69 175 0.0 0.0 0.00 0.00 0.00 94 1016.7
20260902110012 69 175 0.0 0.0 0.00 0.00 0.00 94 1016.6
20260902104516 69 175 0.0 0.0 0.00 0.00 0.00 94 1016.6
20260902103011 69 175 0.0 0.0 0.00 0.00 0.00 94 1016.7
20260902101513 69 175 0.0 0.0 0.00 0.00 0.00 94 1016.7
20260902100009 70 175 0.0 0.0 0.00 0.00 0.00 94 1016.7
20260902094509 70 175 0.0 0.0 0.00 0.00 0.00 94 1016.6
20260902093006 70 175 0.0 0.0 0.00 0.00 0.00 94 1016.5
20260902091512 70 175 0.0 0.0 0.00 0.00 0.00 94 1016.5
20260902090005 70 175 0.0 0.0 0.00 0.00 0.00 94 1016.6
20260902084504 70 175 0.0 0.0 0.00 0.00 0.00 94 1016.7
20260902083002 71 175 0.0 0.0 0.00 0.00 0.00 93 1016.7
20260902081501 71 175 0.0 0.0 0.00 0.00 0.00 93 1016.5
20260902080114 71 175 0.0 0.0 0.00 0.00 0.00 93 1016.2
20260902074611 71 175 0.0 0.0 0.00 0.00 0.00 93 1016.2
20260902073110 71 175 0.0 3.0 0.00 0.00 0.00 93 1016.0
20260902071614 71 175 0.0 0.0 0.00 0.00 0.00 93 1016.4
20260902070058 71 175 0.0 0.0 0.00 0.00 0.00 93 1016.0
20260902064600 71 175 0.0 0.0 0.00 0.00 0.00 93 1016.0
20260902063059 71 175 0.0 0.0 0.00 0.00 0.00 93 1016.3
20260902061608 71 175 0.0 0.0 0.00 0.00 0.00 93 1016.3
20260902060055 71 175 0.0 0.0 0.00 0.00 0.00 93 1016.5
20260902054555 71 175 0.0 0.0 0.00 0.00 0.00 93 1016.5
20260902053055 71 175 0.0 0.0 0.00 0.00 0.00 93 1016.5
20260902051853 71 175 0.0 0.0 0.00 0.00 0.00 93 1017.9
20260902051508 71 175 0.0 0.0 0.00 0.00 0.00 93 1016.5
20260902051406 71 175 0.0 0.0 0.00 0.00 0.00 93 1017.8
20260902050857 71 175 0.0 0.0 0.00 0.00 0.00 93 1017.8
20260902050351 71 175 0.0 0.0 0.00 0.00 0.00 93 1017.8
20260902050046 71 175 0.0 0.0 0.00 0.00 0.00 93 1016.4
20260902045840 71 175 0.0 0.0 0.00 0.00 0.00 93 1017.7
20260902045353 71 175 0.0 0.0 0.00 0.00 0.00 93 1017.7
20260902044845 71 175 0.0 0.0 0.00 0.00 0.00 93 1017.7
20260902044559 71 175 0.0 0.0 0.00 0.00 0.00 93 1016.3
20260902044359 71 175 0.0 0.0 0.00 0.00 0.00 93 1017.6
20260902043852 71 175 0.0 0.0 0.00 0.00 0.00 93 1017.5
20260902043403 71 175 0.0 0.0 0.00 0.00 0.00 93 1017.4
20260902043037 71 175 0.0 0.0 0.00 0.00 0.00 93 1016.0
20260902042837 71 175 0.0 0.0 0.00 0.00 0.00 93 1017.3
20260902042409 71 175 0.0 0.0 0.00 0.00 0.00 93 1017.3
20260902041839 71 175 0.0 0.0 0.00 0.00 0.00 93 1017.2
20260902041514 71 175 0.0 0.0 0.00 0.00 0.00 93 1015.7
20260902041350 72 175 0.0 0.0 0.00 0.00 0.00 93 1017.0
20260902040841 72 175 0.0 0.0 0.00 0.00 0.00 93 1017.0
20260902040355 72 175 0.0 0.0 0.00 0.00 0.00 93 1016.9
20260902040045 71 175 0.0 0.0 0.00 0.00 0.00 93 1015.4
20260902035844 72 175 0.0 0.0 0.00 0.00 0.00 93 1016.9
20260902035337 72 175 0.0 0.0 0.00 0.00 0.00 93 1016.8
20260902034849 72 175 0.0 0.0 0.00 0.00 0.00 93 1016.6
20260902034547 71 175 0.0 0.0 0.00 0.00 0.00 93 1015.3
20260902034347 72 175 0.0 0.0 0.00 0.00 0.00 93 1016.6
20260902033841 72 175 0.0 0.0 0.00 0.00 0.00 93 1016.6
20260902033355 72 175 0.0 0.0 0.00 0.00 0.00 93 1016.6
20260902033049 71 175 0.0 0.0 0.00 0.00 0.00 93 1015.1
20260902032849 72 175 0.0 0.0 0.00 0.00 0.00 93 1016.6
20260902032341 71 175 0.0 0.0 0.00 0.00 0.00 93 1016.6
20260902031851 71 175 0.0 0.0 0.00 0.00 0.00 93 1016.5
20260902031544 71 175 0.0 0.0 0.00 0.00 0.00 93 1015.0
20260902031343 71 175 0.0 0.0 0.00 0.00 0.00 93 1016.5
20260902030836 72 175 0.0 0.0 0.00 0.00 0.00 93 1016.5
20260902030429 72 175 0.0 0.0 0.00 0.00 0.00 93 1016.5
20260902030056 72 175 0.0 0.0 0.00 0.00 0.00 93 1015.1
20260902025856 72 175 0.0 0.0 0.00 0.00 0.00 93 1016.4
20260902025347 72 175 0.0 0.0 0.00 0.00 0.00 93 1016.3
20260902024840 72 175 0.0 0.0 0.00 0.00 0.00 92 1016.2
20260902024555 72 175 0.0 0.0 0.00 0.00 0.00 92 1014.9
20260902024354 72 175 0.0 0.0 0.00 0.00 0.00 92 1016.3
20260902023846 72 175 0.0 0.0 0.00 0.00 0.00 92 1016.4
20260902023339 73 175 0.0 0.0 0.00 0.00 0.00 92 1016.5
20260902023053 72 175 0.0 0.0 0.00 0.00 0.00 92 1015.1
20260902022852 73 175 0.0 0.0 0.00 0.00 0.00 92 1016.4
20260902022345 73 175 0.0 0.0 0.00 0.00 0.00 92 1016.6
20260902021837 73 175 0.0 0.0 0.00 0.00 0.00 92 1016.8
20260902021556 73 175 0.0 0.0 0.00 0.00 0.00 92 1015.4
20260902021350 73 175 0.0 0.0 0.00 0.00 0.00 92 1016.8
20260902020843 74 175 0.0 0.0 0.00 0.00 0.00 91 1016.8
20260902020357 74 175 0.0 0.0 0.00 0.00 0.00 91 1016.8
20260902020047 73 175 0.0 0.0 0.00 0.00 0.00 91 1015.3
20260902015846 74 175 0.0 0.0 0.00 0.00 0.00 91 1016.7
20260902015359 74 175 0.0 0.0 0.00 0.00 0.00 91 1016.7
20260902014852 74 175 0.0 0.0 0.00 0.00 0.00 91 1016.6
20260902014549 74 175 0.0 0.0 0.00 0.00 0.00 91 1015.1
20260902014345 74 175 0.0 0.0 0.00 0.00 0.00 91 1016.6
20260902013841 75 175 0.0 0.0 0.00 0.00 0.00 91 1016.6
20260902013354 75 175 0.0 0.0 0.00 0.00 0.00 91 1016.6
20260902013009 74 175 0.0 0.0 0.00 0.00 0.00 90 1015.2
20260902012907 75 175 0.0 0.0 0.00 0.00 0.00 90 1016.6
20260902012339 75 175 0.0 0.0 0.00 0.00 0.00 90 1016.4
20260902011851 75 175 0.0 0.0 0.00 0.00 0.00 90 1016.4
20260902011550 75 175 0.0 0.0 0.00 0.00 0.00 90 1014.9
20260902011344 75 175 0.0 0.0 0.00 0.00 0.00 90 1016.3
20260902010837 76 175 0.0 0.0 0.00 0.00 0.00 89 1016.3
20260902010411 76 175 0.0 0.0 0.00 0.00 0.00 89 1016.2
20260902010107 75 175 0.0 0.0 0.00 0.00 0.00 89 1014.7
20260902005839 76 175 0.0 0.0 0.00 0.00 0.00 89 1016.1
20260902005353 76 175 0.0 0.0 0.00 0.00 0.00 88 1016.1
20260902004845 77 175 0.0 0.0 0.00 0.00 0.00 87 1015.9
20260902004539 76 175 0.0 0.0 0.00 0.00 0.00 86 1014.4
20260902004338 77 175 0.0 2.0 0.00 0.00 0.00 85 1015.8
20260902003930 77 175 0.0 2.0 0.00 0.00 0.00 85 1015.7
20260902003339 77 175 0.0 2.0 0.00 0.00 0.00 86 1015.9
20260902003052 77 175 0.0 2.0 0.00 0.00 0.00 86 1014.5
20260902002850 77 175 0.0 0.0 0.00 0.00 0.00 87 1015.9
20260902002344 78 175 0.0 0.0 0.00 0.00 0.00 87 1015.9
20260902001837 78 175 0.0 0.0 0.00 0.00 0.00 86 1015.7
20260902001510 78 175 0.0 0.0 0.00 0.00 0.00 85 1014.2
20260902001410 78 175 0.0 0.0 0.00 0.00 0.00 83 1015.6
20260902000842 79 175 0.0 0.0 0.00 0.00 0.00 82 1015.6
20260902000417 79 175 0.0 0.0 0.00 0.00 0.00 82 1015.6
20260902000049 78 175 0.0 0.0 0.00 0.00 0.00 83 1014.2
20260901235844 79 175 0.0 0.0 0.00 0.00 0.00 83 1015.6
20260901235337 79 175 0.0 0.0 0.00 0.00 0.00 83 1015.6
20260901234850 79 175 0.0 0.0 0.00 0.00 0.00 83 1015.5
20260901234542 79 175 0.0 0.0 0.00 0.00 0.00 83 1014.0
20260901234343 80 175 0.0 0.0 0.00 0.00 0.00 83 1015.4
20260901233915 80 175 0.0 0.0 0.00 0.00 0.00 83 1015.4
20260901233347 80 175 0.0 0.0 0.00 0.00 0.00 82 1015.4
20260901233049 80 175 0.0 0.0 0.00 0.00 0.00 82 1014.0
20260901232839 81 175 0.0 1.0 0.00 0.00 0.00 81 1015.4
20260901231842 82 175 0.0 1.0 0.00 0.00 0.00 77 1015.3
20260901231542 81 175 0.0 1.0 0.00 0.00 0.00 77 1013.9
20260901231335 82 175 0.0 0.0 0.00 0.00 0.00 78 1015.3
20260901230847 82 175 0.0 2.0 0.00 0.00 0.00 78 1015.3
20260901230342 83 175 0.0 3.0 0.00 0.00 0.00 74 1015.3
20260901230037 83 175 0.0 3.0 0.00 0.00 0.00 73 1013.9
20260901225835 84 175 1.0 3.0 0.00 0.00 0.00 72 1015.3
20260901225349 84 175 0.0 1.0 0.00 0.00 0.00 72 1015.4
20260901224841 84 175 0.0 1.0 0.00 0.00 0.00 72 1015.3
20260901224553 84 175 0.0 3.0 0.00 0.00 0.00 73 1013.9
20260901224352 85 175 0.0 4.0 0.00 0.00 0.00 72 1015.3
20260901223845 86 175 3.0 4.0 0.00 0.00 0.00 67 1015.2
20260901223338 86 173 1.0 3.0 0.00 0.00 0.00 67 1015.2
20260901223054 85 107 1.0 4.0 0.00 0.00 0.00 66 1013.7
20260901222851 86 107 0.0 4.0 0.00 0.00 0.00 67 1015.2
20260901222344 86 141 2.0 3.0 0.00 0.00 0.00 67 1015.2
20260901221857 86 111 1.0 3.0 0.00 0.00 0.00 68 1015.2
20260901221549 85 111 2.0 3.0 0.00 0.00 0.00 71 1013.7
20260901221348 85 50 1.0 3.0 0.00 0.00 0.00 75 1015.2
20260901220842 85 50 1.0 3.0 0.00 0.00 0.00 76 1015.3
20260901220351 84 50 0.0 2.0 0.00 0.00 0.00 77 1015.3
20260901220048 84 50 0.0 2.0 0.00 0.00 0.00 77 1013.9
20260901215847 85 133 1.0 2.0 0.00 0.00 0.00 76 1015.4
20260901215339 86 133 1.0 2.0 0.00 0.00 0.00 70 1015.4
20260901214912 87 221 1.0 3.0 0.00 0.00 0.00 72 1015.4
20260901214543 86 221 0.0 3.0 0.00 0.00 0.00 66 1014.0
20260901214343 87 221 1.0 3.0 0.00 0.00 0.00 65 1015.4
20260901213836 87 290 0.0 2.0 0.00 0.00 0.00 65 1015.3
20260901213348 87 159 0.0 2.0 0.00 0.00 0.00 66 1015.3
20260901213044 87 159 0.0 3.0 0.00 0.00 0.00 66 1013.8
20260901212840 88 159 1.0 5.0 0.00 0.00 0.00 66 1015.2
20260901212354 88 171 1.0 0.0 0.00 0.00 0.00 66 1014.8
20260901211845 88 215 1.0 3.0 0.00 0.00 0.00 64 1015.2
20260901211538 88 215 1.0 3.0 0.00 0.00 0.00 64 1013.6
20260901211338 88 142 0.0 3.0 0.00 0.00 0.00 64 1015.1
20260901210852 88 166 1.0 4.0 0.00 0.00 0.00 63 1015.0
20260901210344 88 200 2.0 3.0 0.00 0.00 0.00 64 1015.1
20260901210040 88 123 0.0 3.0 0.00 0.00 0.00 64 1013.7
20260901205836 88 123 1.0 3.0 0.00 0.00 0.00 64 1015.2
20260901205350 88 24 0.0 4.0 0.00 0.00 0.00 64 1015.2
20260901204839 88 136 1.0 4.0 0.00 0.00 0.00 64 1015.2